Year,Month,Day,Hour,Minute,Value (Times are PST for temperature in C)
2021,08,11,00,00,23.90
2021,08,11,00,01,23.90
2021,08,11,00,02,23.90
2021,08,11,00,03,23.90
2021,08,11,00,04,23.90
2021,08,11,00,05,23.90
2021,08,11,00,06,23.90
2021,08,11,00,07,23.90
2021,08,11,00,08,23.90
2021,08,11,00,09,23.90
2021,08,11,00,10,23.90
2021,08,11,00,11,23.80
2021,08,11,00,12,23.80
2021,08,11,00,13,23.80
2021,08,11,00,14,23.80
2021,08,11,00,15,23.80
2021,08,11,00,16,23.80
2021,08,11,00,17,23.70
2021,08,11,00,18,23.70
2021,08,11,00,19,23.70
2021,08,11,00,20,23.70
2021,08,11,00,21,23.70
2021,08,11,00,22,23.60
2021,08,11,00,23,23.60
2021,08,11,00,24,23.60
2021,08,11,00,25,23.50
2021,08,11,00,26,23.50
2021,08,11,00,27,23.50
2021,08,11,00,28,23.40
2021,08,11,00,29,23.40
2021,08,11,00,30,23.40
2021,08,11,00,31,23.40
2021,08,11,00,32,23.30
2021,08,11,00,33,23.30
2021,08,11,00,34,23.30
2021,08,11,00,35,23.30
2021,08,11,00,36,23.30
2021,08,11,00,37,23.20
2021,08,11,00,38,23.20
2021,08,11,00,39,23.20
2021,08,11,00,40,23.20
2021,08,11,00,41,23.20
2021,08,11,00,42,23.20
2021,08,11,00,43,23.20
2021,08,11,00,44,23.20
2021,08,11,00,45,23.20
2021,08,11,00,46,23.20
2021,08,11,00,47,23.10
2021,08,11,00,48,23.10
2021,08,11,00,49,23.10
2021,08,11,00,50,23.10
2021,08,11,00,51,23.10
2021,08,11,00,52,23.10
2021,08,11,00,53,23.10
2021,08,11,00,54,23.10
2021,08,11,00,55,23.10
2021,08,11,00,56,23.10
2021,08,11,00,57,23.10
2021,08,11,00,58,23.10
2021,08,11,00,59,23.10
2021,08,11,01,00,23.10
2021,08,11,01,01,23.10
2021,08,11,01,02,23.10
2021,08,11,01,03,23.10
2021,08,11,01,04,23.10
2021,08,11,01,05,23.10
2021,08,11,01,06,23.10
2021,08,11,01,07,23.10
2021,08,11,01,08,23.10
2021,08,11,01,09,23.10
2021,08,11,01,10,23.10
2021,08,11,01,11,23.10
2021,08,11,01,12,23.10
2021,08,11,01,13,23.10
2021,08,11,01,14,23.10
2021,08,11,01,15,23.10
2021,08,11,01,16,23.10
2021,08,11,01,17,23.10
2021,08,11,01,18,23.10
2021,08,11,01,19,23.10
2021,08,11,01,20,23.10
2021,08,11,01,21,23.10
2021,08,11,01,22,23.20
2021,08,11,01,23,23.20
2021,08,11,01,24,23.20
2021,08,11,01,25,23.20
2021,08,11,01,26,23.20
2021,08,11,01,27,23.20
2021,08,11,01,28,23.20
2021,08,11,01,29,23.20
2021,08,11,01,30,23.20
2021,08,11,01,31,23.20
2021,08,11,01,32,23.20
2021,08,11,01,33,23.20
2021,08,11,01,34,23.20
2021,08,11,01,35,23.20
2021,08,11,01,36,23.20
2021,08,11,01,37,23.20
2021,08,11,01,38,23.20
2021,08,11,01,39,23.20
2021,08,11,01,40,23.20
2021,08,11,01,41,23.20
2021,08,11,01,42,23.20
2021,08,11,01,43,23.20
2021,08,11,01,44,23.20
2021,08,11,01,45,23.20
2021,08,11,01,46,23.20
2021,08,11,01,47,23.20
2021,08,11,01,48,23.20
2021,08,11,01,49,23.10
2021,08,11,01,50,23.10
2021,08,11,01,51,23.10
2021,08,11,01,52,23.10
2021,08,11,01,53,23.10
2021,08,11,01,54,23.10
2021,08,11,01,55,23.10
2021,08,11,01,56,23.00
2021,08,11,01,57,23.00
2021,08,11,01,58,23.00
2021,08,11,01,59,23.00
2021,08,11,02,00,22.90
2021,08,11,02,01,22.90
2021,08,11,02,02,22.90
2021,08,11,02,03,22.90
2021,08,11,02,04,22.90
2021,08,11,02,05,22.90
2021,08,11,02,06,22.80
2021,08,11,02,07,22.80
2021,08,11,02,08,22.80
2021,08,11,02,09,22.80
2021,08,11,02,10,22.80
2021,08,11,02,11,22.70
2021,08,11,02,12,22.70
2021,08,11,02,13,22.70
2021,08,11,02,14,22.70
2021,08,11,02,15,22.70
2021,08,11,02,16,22.70
2021,08,11,02,17,22.70
2021,08,11,02,18,22.70
2021,08,11,02,19,22.70
2021,08,11,02,20,22.60
2021,08,11,02,21,22.60
2021,08,11,02,22,22.60
2021,08,11,02,23,22.60
2021,08,11,02,24,22.60
2021,08,11,02,25,22.60
2021,08,11,02,26,22.60
2021,08,11,02,27,22.60
2021,08,11,02,28,22.60
2021,08,11,02,29,22.50
2021,08,11,02,30,22.60
2021,08,11,02,31,22.60
2021,08,11,02,32,22.50
2021,08,11,02,33,22.50
2021,08,11,02,34,22.60
2021,08,11,02,35,22.60
2021,08,11,02,36,22.60
2021,08,11,02,37,22.50
2021,08,11,02,38,22.50
2021,08,11,02,39,22.50
2021,08,11,02,40,22.50
2021,08,11,02,41,22.50
2021,08,11,02,42,22.50
2021,08,11,02,43,22.50
2021,08,11,02,44,22.50
2021,08,11,02,45,22.50
2021,08,11,02,46,22.50
2021,08,11,02,47,22.50
2021,08,11,02,48,22.50
2021,08,11,02,49,22.50
2021,08,11,02,50,22.40
2021,08,11,02,51,22.40
2021,08,11,02,52,22.40
2021,08,11,02,53,22.40
2021,08,11,02,54,22.40
2021,08,11,02,55,22.40
2021,08,11,02,56,22.40
2021,08,11,02,57,22.40
2021,08,11,02,58,22.30
2021,08,11,02,59,22.30
2021,08,11,03,00,22.30
2021,08,11,03,01,22.30
2021,08,11,03,02,22.30
2021,08,11,03,03,22.30
2021,08,11,03,04,22.30
2021,08,11,03,05,22.30
2021,08,11,03,06,22.30
2021,08,11,03,07,22.30
2021,08,11,03,08,22.30
2021,08,11,03,09,22.20
2021,08,11,03,10,22.20
2021,08,11,03,11,22.20
2021,08,11,03,12,22.20
2021,08,11,03,13,22.20
2021,08,11,03,14,22.20
2021,08,11,03,15,22.20
2021,08,11,03,16,22.20
2021,08,11,03,17,22.20
2021,08,11,03,18,22.20
2021,08,11,03,19,22.30
2021,08,11,03,20,22.30
2021,08,11,03,21,22.30
2021,08,11,03,22,22.30
2021,08,11,03,23,22.40
2021,08,11,03,24,22.40
2021,08,11,03,25,22.40
2021,08,11,03,26,22.40
2021,08,11,03,27,22.40
2021,08,11,03,28,22.40
2021,08,11,03,29,22.40
2021,08,11,03,30,22.40
2021,08,11,03,31,22.40
2021,08,11,03,32,22.40
2021,08,11,03,33,22.40
2021,08,11,03,34,22.40
2021,08,11,03,35,22.40
2021,08,11,03,36,22.40
2021,08,11,03,37,22.30
2021,08,11,03,38,22.30
2021,08,11,03,39,22.30
2021,08,11,03,40,22.30
2021,08,11,03,41,22.30
2021,08,11,03,42,22.20
2021,08,11,03,43,22.20
2021,08,11,03,44,22.20
2021,08,11,03,45,22.20
2021,08,11,03,46,22.20
2021,08,11,03,47,22.20
2021,08,11,03,48,22.20
2021,08,11,03,49,22.20
2021,08,11,03,50,22.20
2021,08,11,03,51,22.20
2021,08,11,03,52,22.10
2021,08,11,03,53,22.10
2021,08,11,03,54,22.10
2021,08,11,03,55,22.10
2021,08,11,03,56,22.10
2021,08,11,03,57,22.10
2021,08,11,03,58,22.10
2021,08,11,03,59,22.10
2021,08,11,04,00,22.20
2021,08,11,04,01,22.20
2021,08,11,04,02,22.20
2021,08,11,04,03,22.20
2021,08,11,04,04,22.20
2021,08,11,04,05,22.20
2021,08,11,04,06,22.20
2021,08,11,04,07,22.20
2021,08,11,04,08,22.20
2021,08,11,04,09,22.20
2021,08,11,04,10,22.20
2021,08,11,04,11,22.20
2021,08,11,04,12,22.20
2021,08,11,04,13,22.30
2021,08,11,04,14,22.30
2021,08,11,04,15,22.30
2021,08,11,04,16,22.20
2021,08,11,04,17,22.20
2021,08,11,04,18,22.20
2021,08,11,04,19,22.20
2021,08,11,04,20,22.20
2021,08,11,04,21,22.20
2021,08,11,04,22,22.30
2021,08,11,04,23,22.30
2021,08,11,04,24,22.30
2021,08,11,04,25,22.30
2021,08,11,04,26,22.30
2021,08,11,04,27,22.30
2021,08,11,04,28,22.30
2021,08,11,04,29,22.30
2021,08,11,04,30,22.30
2021,08,11,04,31,22.40
2021,08,11,04,32,22.40
2021,08,11,04,33,22.40
2021,08,11,04,34,22.50
2021,08,11,04,35,22.50
2021,08,11,04,36,22.50
2021,08,11,04,37,22.50
2021,08,11,04,38,22.50
2021,08,11,04,39,22.50
2021,08,11,04,40,22.50
2021,08,11,04,41,22.50
2021,08,11,04,42,22.50
2021,08,11,04,43,22.50
2021,08,11,04,44,22.50
2021,08,11,04,45,22.50
2021,08,11,04,46,22.40
2021,08,11,04,47,22.40
2021,08,11,04,48,22.40
2021,08,11,04,49,22.40
2021,08,11,04,50,22.40
2021,08,11,04,51,22.40
2021,08,11,04,52,22.30
2021,08,11,04,53,22.30
2021,08,11,04,54,22.30
2021,08,11,04,55,22.30
2021,08,11,04,56,22.30
2021,08,11,04,57,22.30
2021,08,11,04,58,22.30
2021,08,11,04,59,22.30
2021,08,11,05,00,22.30
2021,08,11,05,01,22.30
2021,08,11,05,02,22.30
2021,08,11,05,03,22.30
2021,08,11,05,04,22.30
2021,08,11,05,05,22.40
2021,08,11,05,06,22.40
2021,08,11,05,07,22.40
2021,08,11,05,08,22.40
2021,08,11,05,09,22.50
2021,08,11,05,10,22.40
2021,08,11,05,11,22.50
2021,08,11,05,12,22.50
2021,08,11,05,13,22.40
2021,08,11,05,14,22.40
2021,08,11,05,15,22.40
2021,08,11,05,16,22.40
2021,08,11,05,17,22.40
2021,08,11,05,18,22.40
2021,08,11,05,19,22.40
2021,08,11,05,20,22.50
2021,08,11,05,21,22.50
2021,08,11,05,22,22.50
2021,08,11,05,23,22.50
2021,08,11,05,24,22.50
2021,08,11,05,25,22.50
2021,08,11,05,26,22.40
2021,08,11,05,27,22.40
2021,08,11,05,28,22.40
2021,08,11,05,29,22.40
2021,08,11,05,30,22.40
2021,08,11,05,31,22.40
2021,08,11,05,32,22.40
2021,08,11,05,33,22.40
2021,08,11,05,34,22.40
2021,08,11,05,35,22.40
2021,08,11,05,36,22.30
2021,08,11,05,37,22.30
2021,08,11,05,38,22.30
2021,08,11,05,39,22.30
2021,08,11,05,40,22.30
2021,08,11,05,41,22.30
2021,08,11,05,42,22.30
2021,08,11,05,43,22.30
2021,08,11,05,44,22.30
2021,08,11,05,45,22.30
2021,08,11,05,46,22.20
2021,08,11,05,47,22.20
2021,08,11,05,48,22.20
2021,08,11,05,49,22.20
2021,08,11,05,50,22.20
2021,08,11,05,51,22.20
2021,08,11,05,52,22.20
2021,08,11,05,53,22.20
2021,08,11,05,54,22.20
2021,08,11,05,55,22.20
2021,08,11,05,56,22.20
2021,08,11,05,57,22.10
2021,08,11,05,58,22.10
2021,08,11,05,59,22.10
2021,08,11,06,00,22.10
2021,08,11,06,01,22.00
2021,08,11,06,02,22.00
2021,08,11,06,03,22.00
2021,08,11,06,04,21.90
2021,08,11,06,05,21.90
2021,08,11,06,06,21.90
2021,08,11,06,07,21.90
2021,08,11,06,08,21.90
2021,08,11,06,09,21.80
2021,08,11,06,10,21.80
2021,08,11,06,11,21.80
2021,08,11,06,12,21.80
2021,08,11,06,13,21.80
2021,08,11,06,14,21.80
2021,08,11,06,15,21.80
2021,08,11,06,16,21.80
2021,08,11,06,17,21.80
2021,08,11,06,18,21.80
2021,08,11,06,19,21.80
2021,08,11,06,20,21.80
2021,08,11,06,21,21.80
2021,08,11,06,22,21.80
2021,08,11,06,23,21.80
2021,08,11,06,24,21.80
2021,08,11,06,25,21.80
2021,08,11,06,26,21.80
2021,08,11,06,27,21.80
2021,08,11,06,28,21.80
2021,08,11,06,29,21.80
2021,08,11,06,30,21.80
2021,08,11,06,31,21.80
2021,08,11,06,32,21.80
2021,08,11,06,33,21.80
2021,08,11,06,34,21.80
2021,08,11,06,35,21.80
2021,08,11,06,36,21.80
2021,08,11,06,37,21.80
2021,08,11,06,38,21.80
2021,08,11,06,39,21.80
2021,08,11,06,40,21.90
2021,08,11,06,41,21.90
2021,08,11,06,42,21.90
2021,08,11,06,43,21.90
2021,08,11,06,44,21.90
2021,08,11,06,45,22.00
2021,08,11,06,46,22.00
2021,08,11,06,47,22.00
2021,08,11,06,48,22.10
2021,08,11,06,49,22.10
2021,08,11,06,50,22.10
2021,08,11,06,51,22.10
2021,08,11,06,52,22.20
2021,08,11,06,53,22.20
2021,08,11,06,54,22.20
2021,08,11,06,55,22.20
2021,08,11,06,56,22.20
2021,08,11,06,57,22.20
2021,08,11,06,58,22.20
2021,08,11,06,59,22.20
2021,08,11,07,00,22.30
2021,08,11,07,01,22.30
2021,08,11,07,02,22.30
2021,08,11,07,03,22.40
2021,08,11,07,04,22.40
2021,08,11,07,05,22.40
2021,08,11,07,06,22.50
2021,08,11,07,07,22.60
2021,08,11,07,08,22.60
2021,08,11,07,09,22.60
2021,08,11,07,10,22.70
2021,08,11,07,11,22.70
2021,08,11,07,12,22.80
2021,08,11,07,13,22.80
2021,08,11,07,14,22.90
2021,08,11,07,15,22.90
2021,08,11,07,16,22.90
2021,08,11,07,17,23.00
2021,08,11,07,18,23.00
2021,08,11,07,19,23.00
2021,08,11,07,20,23.10
2021,08,11,07,21,23.10
2021,08,11,07,22,23.20
2021,08,11,07,23,23.20
2021,08,11,07,24,23.20
2021,08,11,07,25,23.20
2021,08,11,07,26,23.20
2021,08,11,07,27,23.20
2021,08,11,07,28,23.20
2021,08,11,07,29,23.20
2021,08,11,07,30,23.20
2021,08,11,07,31,23.20
2021,08,11,07,32,23.20
2021,08,11,07,33,23.20
2021,08,11,07,34,23.20
2021,08,11,07,35,23.10
2021,08,11,07,36,23.10
2021,08,11,07,37,23.10
2021,08,11,07,38,23.10
2021,08,11,07,39,23.10
2021,08,11,07,40,23.10
2021,08,11,07,41,23.10
2021,08,11,07,42,23.10
2021,08,11,07,43,23.10
2021,08,11,07,44,23.10
2021,08,11,07,45,23.20
2021,08,11,07,46,23.20
2021,08,11,07,47,23.20
2021,08,11,07,48,23.20
2021,08,11,07,49,23.30
2021,08,11,07,50,23.30
2021,08,11,07,51,23.30
2021,08,11,07,52,23.30
2021,08,11,07,53,23.30
2021,08,11,07,54,23.30
2021,08,11,07,55,23.30
2021,08,11,07,56,23.30
2021,08,11,07,57,23.30
2021,08,11,07,58,23.30
2021,08,11,07,59,23.40
2021,08,11,08,00,23.40
2021,08,11,08,01,23.40
2021,08,11,08,02,23.40
2021,08,11,08,03,23.50
2021,08,11,08,04,23.50
2021,08,11,08,05,23.60
2021,08,11,08,06,23.60
2021,08,11,08,07,23.70
2021,08,11,08,08,23.70
2021,08,11,08,09,23.80
2021,08,11,08,10,23.80
2021,08,11,08,11,23.80
2021,08,11,08,12,23.80
2021,08,11,08,13,23.80
2021,08,11,08,14,23.80
2021,08,11,08,15,23.90
2021,08,11,08,16,23.90
2021,08,11,08,17,23.90
2021,08,11,08,18,23.90
2021,08,11,08,19,24.00
2021,08,11,08,20,24.00
2021,08,11,08,21,24.10
2021,08,11,08,22,24.10
2021,08,11,08,23,24.20
2021,08,11,08,24,24.20
2021,08,11,08,25,24.30
2021,08,11,08,26,24.30
2021,08,11,08,27,24.30
2021,08,11,08,28,24.40
2021,08,11,08,29,24.50
2021,08,11,08,30,24.50
2021,08,11,08,31,24.60
2021,08,11,08,32,24.60
2021,08,11,08,33,24.70
2021,08,11,08,34,24.70
2021,08,11,08,35,24.70
2021,08,11,08,36,24.70
2021,08,11,08,37,24.70
2021,08,11,08,38,24.60
2021,08,11,08,39,24.60
2021,08,11,08,40,24.60
2021,08,11,08,41,24.70
2021,08,11,08,42,24.70
2021,08,11,08,43,24.70
2021,08,11,08,44,24.70
2021,08,11,08,45,24.70
2021,08,11,08,46,24.70
2021,08,11,08,47,24.70
2021,08,11,08,48,24.60
2021,08,11,08,49,24.60
2021,08,11,08,50,24.60
2021,08,11,08,51,24.60
2021,08,11,08,52,24.60
2021,08,11,08,53,24.70
2021,08,11,08,54,24.70
2021,08,11,08,55,24.70
2021,08,11,08,56,24.70
2021,08,11,08,57,24.70
2021,08,11,08,58,24.70
2021,08,11,08,59,24.80
2021,08,11,09,00,24.80
2021,08,11,09,01,24.80
2021,08,11,09,02,24.80
2021,08,11,09,03,24.80
2021,08,11,09,04,24.80
2021,08,11,09,05,24.80
2021,08,11,09,06,24.80
2021,08,11,09,07,24.80
2021,08,11,09,08,24.80
2021,08,11,09,09,24.80
2021,08,11,09,10,24.80
2021,08,11,09,11,24.80
2021,08,11,09,12,24.90
2021,08,11,09,13,24.90
2021,08,11,09,14,24.90
2021,08,11,09,15,24.90
2021,08,11,09,16,24.90
2021,08,11,09,17,24.90
2021,08,11,09,18,24.90
2021,08,11,09,19,24.80
2021,08,11,09,20,24.80
2021,08,11,09,21,24.80
2021,08,11,09,22,24.80
2021,08,11,09,23,24.80
2021,08,11,09,24,24.80
2021,08,11,09,25,24.80
2021,08,11,09,26,24.70
2021,08,11,09,27,24.70
2021,08,11,09,28,24.60
2021,08,11,09,29,24.50
2021,08,11,09,30,24.40
2021,08,11,09,31,24.40
2021,08,11,09,32,24.40
2021,08,11,09,33,24.40
2021,08,11,09,34,24.40
2021,08,11,09,35,24.40
2021,08,11,09,36,24.50
2021,08,11,09,37,24.50
2021,08,11,09,38,24.50
2021,08,11,09,39,24.50
2021,08,11,09,40,24.50
2021,08,11,09,41,24.60
2021,08,11,09,42,24.60
2021,08,11,09,43,24.60
2021,08,11,09,44,24.70
2021,08,11,09,45,24.70
2021,08,11,09,46,24.70
2021,08,11,09,47,24.70
2021,08,11,09,48,24.70
2021,08,11,09,49,24.70
2021,08,11,09,50,24.70
2021,08,11,09,51,24.70
2021,08,11,09,52,24.80
2021,08,11,09,53,24.80
2021,08,11,09,54,24.80
2021,08,11,09,55,24.90
2021,08,11,09,56,24.90
2021,08,11,09,57,24.90
2021,08,11,09,58,24.90
2021,08,11,09,59,24.90
2021,08,11,10,00,25.00
2021,08,11,10,01,25.00
2021,08,11,10,02,25.10
2021,08,11,10,03,25.20
2021,08,11,10,04,25.20
2021,08,11,10,05,25.20
2021,08,11,10,06,25.20
2021,08,11,10,07,25.20
2021,08,11,10,08,25.30
2021,08,11,10,09,25.40
2021,08,11,10,10,25.40
2021,08,11,10,11,25.50
2021,08,11,10,12,25.50
2021,08,11,10,13,25.60
2021,08,11,10,14,25.60
2021,08,11,10,15,25.70
2021,08,11,10,16,25.80
2021,08,11,10,17,25.90
2021,08,11,10,18,25.90
2021,08,11,10,19,26.00
2021,08,11,10,20,26.00
2021,08,11,10,21,26.10
2021,08,11,10,22,26.10
2021,08,11,10,23,26.20
2021,08,11,10,24,26.20
2021,08,11,10,25,26.20
2021,08,11,10,26,26.20
2021,08,11,10,27,26.20
2021,08,11,10,28,26.20
2021,08,11,10,29,26.10
2021,08,11,10,30,26.10
2021,08,11,10,31,26.00
2021,08,11,10,32,25.90
2021,08,11,10,33,25.90
2021,08,11,10,34,25.90
2021,08,11,10,35,25.90
2021,08,11,10,36,25.90
2021,08,11,10,37,25.90
2021,08,11,10,38,25.90
2021,08,11,10,39,25.90
2021,08,11,10,40,25.90
2021,08,11,10,41,25.70
2021,08,11,10,42,25.60
2021,08,11,10,43,25.60
2021,08,11,10,44,25.50
2021,08,11,10,45,25.50
2021,08,11,10,46,25.40
2021,08,11,10,47,25.40
2021,08,11,10,48,25.40
2021,08,11,10,49,25.50
2021,08,11,10,50,25.50
2021,08,11,10,51,25.40
2021,08,11,10,52,25.30
2021,08,11,10,53,25.30
2021,08,11,10,54,25.30
2021,08,11,10,55,25.30
2021,08,11,10,56,25.40
2021,08,11,10,57,25.40
2021,08,11,10,58,25.30
2021,08,11,10,59,25.40
2021,08,11,11,00,25.40
2021,08,11,11,01,25.40
2021,08,11,11,02,25.50
2021,08,11,11,03,25.60
2021,08,11,11,04,25.60
2021,08,11,11,05,25.70
2021,08,11,11,06,25.80
2021,08,11,11,07,25.80
2021,08,11,11,08,25.80
2021,08,11,11,09,25.90
2021,08,11,11,10,25.90
2021,08,11,11,11,25.90
2021,08,11,11,12,25.90
2021,08,11,11,13,25.80
2021,08,11,11,14,25.80
2021,08,11,11,15,25.80
2021,08,11,11,16,25.80
2021,08,11,11,17,25.80
2021,08,11,11,18,25.80
2021,08,11,11,19,25.80
2021,08,11,11,20,25.80
2021,08,11,11,21,25.80
2021,08,11,11,22,25.80
2021,08,11,11,23,25.80
2021,08,11,11,24,25.80
2021,08,11,11,25,25.80
2021,08,11,11,26,25.80
2021,08,11,11,27,25.80
2021,08,11,11,28,25.80
2021,08,11,11,29,25.80
2021,08,11,11,30,25.90
2021,08,11,11,31,25.90
2021,08,11,11,32,26.00
2021,08,11,11,33,26.10
2021,08,11,11,34,26.20
2021,08,11,11,35,26.30
2021,08,11,11,36,26.40
2021,08,11,11,37,26.50
2021,08,11,11,38,26.60
2021,08,11,11,39,26.60
2021,08,11,11,40,26.60
2021,08,11,11,41,26.60
2021,08,11,11,42,26.60
2021,08,11,11,43,26.70
2021,08,11,11,44,26.70
2021,08,11,11,45,26.60
2021,08,11,11,46,26.60
2021,08,11,11,47,26.60
2021,08,11,11,48,26.60
2021,08,11,11,49,26.50
2021,08,11,11,50,26.50
2021,08,11,11,51,26.50
2021,08,11,11,52,26.50
2021,08,11,11,53,26.60
2021,08,11,11,54,26.60
2021,08,11,11,55,26.60
2021,08,11,11,56,26.70
2021,08,11,11,57,26.80
2021,08,11,11,58,26.80
2021,08,11,11,59,26.80
2021,08,11,12,00,26.80
2021,08,11,12,01,26.80
2021,08,11,12,02,26.70
2021,08,11,12,03,26.70
2021,08,11,12,04,26.70
2021,08,11,12,05,26.70
2021,08,11,12,06,26.70
2021,08,11,12,07,26.70
2021,08,11,12,08,26.70
2021,08,11,12,09,26.70
2021,08,11,12,10,26.70
2021,08,11,12,11,26.80
2021,08,11,12,12,26.80
2021,08,11,12,13,26.90
2021,08,11,12,14,27.00
2021,08,11,12,15,27.00
2021,08,11,12,16,27.00
2021,08,11,12,17,27.00
2021,08,11,12,18,27.10
2021,08,11,12,19,27.10
2021,08,11,12,20,27.20
2021,08,11,12,21,27.20
2021,08,11,12,22,27.20
2021,08,11,12,23,27.20
2021,08,11,12,24,27.20
2021,08,11,12,25,27.10
2021,08,11,12,26,27.10
2021,08,11,12,27,27.10
2021,08,11,12,28,27.10
2021,08,11,12,29,27.10
2021,08,11,12,30,27.20
2021,08,11,12,31,27.20
2021,08,11,12,32,27.20
2021,08,11,12,33,27.20
2021,08,11,12,34,27.20
2021,08,11,12,35,27.20
2021,08,11,12,36,27.20
2021,08,11,12,37,27.20
2021,08,11,12,38,27.30
2021,08,11,12,39,27.40
2021,08,11,12,40,27.50
2021,08,11,12,41,27.60
2021,08,11,12,42,27.70
2021,08,11,12,43,27.70
2021,08,11,12,44,27.80
2021,08,11,12,45,27.80
2021,08,11,12,46,27.80
2021,08,11,12,47,27.80
2021,08,11,12,48,27.90
2021,08,11,12,49,27.90
2021,08,11,12,50,27.90
2021,08,11,12,51,28.00
2021,08,11,12,52,28.00
2021,08,11,12,53,27.90
2021,08,11,12,54,27.90
2021,08,11,12,55,27.90
2021,08,11,12,56,28.00
2021,08,11,12,57,28.00
2021,08,11,12,58,28.00
2021,08,11,12,59,27.90
2021,08,11,13,00,27.90
2021,08,11,13,01,28.00
2021,08,11,13,02,28.10
2021,08,11,13,03,28.20
2021,08,11,13,04,28.20
2021,08,11,13,05,28.20
2021,08,11,13,06,28.20
2021,08,11,13,07,28.20
2021,08,11,13,08,28.30
2021,08,11,13,09,28.40
2021,08,11,13,10,28.50
2021,08,11,13,11,28.50
2021,08,11,13,12,28.60
2021,08,11,13,13,28.70
2021,08,11,13,14,28.70
2021,08,11,13,15,28.70
2021,08,11,13,16,28.70
2021,08,11,13,17,28.60
2021,08,11,13,18,28.50
2021,08,11,13,19,28.50
2021,08,11,13,20,28.40
2021,08,11,13,21,28.40
2021,08,11,13,22,28.50
2021,08,11,13,23,28.60
2021,08,11,13,24,28.70
2021,08,11,13,25,28.70
2021,08,11,13,26,28.80
2021,08,11,13,27,28.80
2021,08,11,13,28,28.90
2021,08,11,13,29,29.00
2021,08,11,13,30,29.10
2021,08,11,13,31,29.20
2021,08,11,13,32,29.20
2021,08,11,13,33,29.30
2021,08,11,13,34,29.30
2021,08,11,13,35,29.30
2021,08,11,13,36,29.40
2021,08,11,13,37,29.40
2021,08,11,13,38,29.40
2021,08,11,13,39,29.40
2021,08,11,13,40,29.40
2021,08,11,13,41,29.40
2021,08,11,13,42,29.40
2021,08,11,13,43,29.40
2021,08,11,13,44,29.40
2021,08,11,13,45,29.30
2021,08,11,13,46,29.30
2021,08,11,13,47,29.30
2021,08,11,13,48,29.30
2021,08,11,13,49,29.30
2021,08,11,13,50,29.30
2021,08,11,13,51,29.40
2021,08,11,13,52,29.40
2021,08,11,13,53,29.50
2021,08,11,13,54,29.50
2021,08,11,13,55,29.50
2021,08,11,13,56,29.50
2021,08,11,13,57,29.40
2021,08,11,13,58,29.30
2021,08,11,13,59,29.20
2021,08,11,14,00,29.20
2021,08,11,14,01,29.20
2021,08,11,14,02,29.30
2021,08,11,14,03,29.30
2021,08,11,14,04,29.40
2021,08,11,14,05,29.60
2021,08,11,14,06,29.70
2021,08,11,14,07,29.80
2021,08,11,14,08,29.80
2021,08,11,14,09,29.70
2021,08,11,14,10,29.70
2021,08,11,14,11,29.60
2021,08,11,14,12,29.60
2021,08,11,14,13,29.60
2021,08,11,14,14,29.60
2021,08,11,14,15,29.70
2021,08,11,14,16,29.70
2021,08,11,14,17,29.80
2021,08,11,14,18,29.90
2021,08,11,14,19,29.90
2021,08,11,14,20,30.00
2021,08,11,14,21,29.90
2021,08,11,14,22,30.00
2021,08,11,14,23,29.90
2021,08,11,14,24,29.90
2021,08,11,14,25,29.90
2021,08,11,14,26,29.80
2021,08,11,14,27,29.70
2021,08,11,14,28,29.60
2021,08,11,14,29,29.60
2021,08,11,14,30,29.60
2021,08,11,14,31,29.60
2021,08,11,14,32,29.70
2021,08,11,14,33,29.70
2021,08,11,14,34,29.80
2021,08,11,14,35,29.90
2021,08,11,14,36,29.90
2021,08,11,14,37,29.90
2021,08,11,14,38,30.00
2021,08,11,14,39,30.00
2021,08,11,14,40,30.10
2021,08,11,14,41,30.10
2021,08,11,14,42,30.10
2021,08,11,14,43,30.10
2021,08,11,14,44,30.10
2021,08,11,14,45,30.10
2021,08,11,14,46,30.20
2021,08,11,14,47,30.20
2021,08,11,14,48,30.20
2021,08,11,14,49,30.20
2021,08,11,14,50,30.20
2021,08,11,14,51,30.20
2021,08,11,14,52,30.20
2021,08,11,14,53,30.10
2021,08,11,14,54,30.20
2021,08,11,14,55,30.10
2021,08,11,14,56,30.00
2021,08,11,14,57,30.00
2021,08,11,14,58,29.90
2021,08,11,14,59,29.90
2021,08,11,15,00,29.90
2021,08,11,15,01,30.00
2021,08,11,15,02,30.10
2021,08,11,15,03,30.20
2021,08,11,15,04,30.30
2021,08,11,15,05,30.30
2021,08,11,15,06,30.30
2021,08,11,15,07,30.30
2021,08,11,15,08,30.30
2021,08,11,15,09,30.30
2021,08,11,15,10,30.30
2021,08,11,15,11,30.30
2021,08,11,15,12,30.30
2021,08,11,15,13,30.30
2021,08,11,15,14,30.30
2021,08,11,15,15,30.30
2021,08,11,15,16,30.30
2021,08,11,15,17,30.30
2021,08,11,15,18,30.30
2021,08,11,15,19,30.30
2021,08,11,15,20,30.30
2021,08,11,15,21,30.30
2021,08,11,15,22,30.30
2021,08,11,15,23,30.40
2021,08,11,15,24,30.40
2021,08,11,15,25,30.40
2021,08,11,15,26,30.50
2021,08,11,15,27,30.50
2021,08,11,15,28,30.50
2021,08,11,15,29,30.40
2021,08,11,15,30,30.40
2021,08,11,15,31,30.40
2021,08,11,15,32,30.40
2021,08,11,15,33,30.40
2021,08,11,15,34,30.30
2021,08,11,15,35,30.30
2021,08,11,15,36,30.30
2021,08,11,15,37,30.30
2021,08,11,15,38,30.20
2021,08,11,15,39,30.30
2021,08,11,15,40,30.30
2021,08,11,15,41,30.20
2021,08,11,15,42,30.20
2021,08,11,15,43,30.30
2021,08,11,15,44,30.30
2021,08,11,15,45,30.40
2021,08,11,15,46,30.30
2021,08,11,15,47,30.30
2021,08,11,15,48,30.30
2021,08,11,15,49,30.30
2021,08,11,15,50,30.30
2021,08,11,15,51,30.30
2021,08,11,15,52,30.30
2021,08,11,15,53,30.30
2021,08,11,15,54,30.40
2021,08,11,15,55,30.40
2021,08,11,15,56,30.50
2021,08,11,15,57,30.50
2021,08,11,15,58,30.60
2021,08,11,15,59,30.60
2021,08,11,16,00,30.60
2021,08,11,16,01,30.70
2021,08,11,16,02,30.80
2021,08,11,16,03,30.80
2021,08,11,16,04,30.90
2021,08,11,16,05,30.90
2021,08,11,16,06,31.00
2021,08,11,16,07,31.00
2021,08,11,16,08,31.10
2021,08,11,16,09,31.10
2021,08,11,16,10,31.10
2021,08,11,16,11,31.10
2021,08,11,16,12,31.10
2021,08,11,16,13,31.10
2021,08,11,16,14,31.10
2021,08,11,16,15,31.10
2021,08,11,16,16,31.10
2021,08,11,16,17,31.10
2021,08,11,16,18,31.10
2021,08,11,16,19,31.10
2021,08,11,16,20,31.10
2021,08,11,16,21,31.10
2021,08,11,16,22,31.10
2021,08,11,16,23,31.10
2021,08,11,16,24,31.20
2021,08,11,16,25,31.20
2021,08,11,16,26,31.20
2021,08,11,16,27,31.30
2021,08,11,16,28,31.30
2021,08,11,16,29,31.30
2021,08,11,16,30,31.40
2021,08,11,16,31,31.40
2021,08,11,16,32,31.40
2021,08,11,16,33,31.40
2021,08,11,16,34,31.40
2021,08,11,16,35,31.40
2021,08,11,16,36,31.50
2021,08,11,16,37,31.50
2021,08,11,16,38,31.60
2021,08,11,16,39,31.60
2021,08,11,16,40,31.50
2021,08,11,16,41,31.40
2021,08,11,16,42,31.40
2021,08,11,16,43,31.30
2021,08,11,16,44,31.30
2021,08,11,16,45,31.30
2021,08,11,16,46,31.30
2021,08,11,16,47,31.30
2021,08,11,16,48,31.30
2021,08,11,16,49,31.30
2021,08,11,16,50,31.30
2021,08,11,16,51,31.30
2021,08,11,16,52,31.30
2021,08,11,16,53,31.30
2021,08,11,16,54,31.30
2021,08,11,16,55,31.40
2021,08,11,16,56,31.40
2021,08,11,16,57,31.40
2021,08,11,16,58,31.40
2021,08,11,16,59,31.40
2021,08,11,17,00,31.40
2021,08,11,17,01,31.50
2021,08,11,17,02,31.50
2021,08,11,17,03,31.60
2021,08,11,17,04,31.60
2021,08,11,17,05,31.60
2021,08,11,17,06,31.60
2021,08,11,17,07,31.60
2021,08,11,17,08,31.60
2021,08,11,17,09,31.60
2021,08,11,17,10,31.60
2021,08,11,17,11,31.60
2021,08,11,17,12,31.60
2021,08,11,17,13,31.60
2021,08,11,17,14,31.70
2021,08,11,17,15,31.70
2021,08,11,17,16,31.70
2021,08,11,17,17,31.70
2021,08,11,17,18,31.60
2021,08,11,17,19,31.60